DELTA 1 DEB

基本信息
目录编号:
42078
目录名称:
DELTA 1 DEB
国际标识:
1968-114E
轨道中心:
EARTH
物体状态:
在轨
发射日期:
1968-12-15 UTC
轨道信息
数据来源: 国际轨道数据
星历时间: 2026-07-07T00:08:46+0800
半长轴: 7842.396km
偏心率: 0.0027892
轨道倾角: 101.515°
近地点辐角: 230.243°
升交点赤经: 146.580°
平近点角: 129.618°
近地点: 1442.384km
远地点: 1486.134km
周期: 115.195分钟
每日圈数: 12.500565
详细信息
发射场:
AFWTR
轨道高度:
LEO
数据来源:
AOE Integration Group
参考系:
TEME
时间系统:
UTC
历元类型:
SGP4
2D轨道图
3D轨道图
轨道高度分析图
轨道倾角分析图
轨道综合分析图
查看轨道综合分析图